{"data":{"norad_id":67593,"intl_designator":"2026-018E","name":"STARLINK-36634","alt_names":[],"object_type":"PAYLOAD","status":"ACTIVE","operator":null,"country":"US","launch_date":"2026-01-29","launch_site_code":"AFWTR","launch_vehicle":null,"mission":null,"orbit_class":"UNKNOWN","rcs_meters":null,"size_class":null,"mass_kg":null,"dimensions":null,"purposes":["comms"],"wikipedia_slug":null,"has_3d_model":false,"image_url":null,"decayed_at":null,"tle_current":{"epoch":"2026-09-19T09:46:27.937056Z","epoch_age_seconds":163652,"freshness":"FRESH","line1":"1 67593U 26018E   26262.40726779  .00019362  00000+0  60042-3 0  9992","line2":"2 67593  97.2890 325.8928 0001257 107.4748 252.6632 15.33450295 37025","mean_motion":15.33450295,"eccentricity":0.0001257,"inclination_deg":97.289,"raan_deg":325.8928,"arg_perigee_deg":107.4748,"mean_anomaly_deg":252.6632,"bstar":0.00060042,"rev_number":3702,"period_min":93.905880398947,"perigee_km":464.66717171118,"apogee_km":466.38766894645,"semimajor_km":6843.6644203288,"source":"CELESTRAK","updated_at":"2026-09-20T09:00:43.601934Z"}}}